This is the latest recevied weather packets stored in our database for station/object WA1TYB-13. If no packets are shown the sender has not sent any weather packets the latest 10 day(s).
| Time | Temp. | Humidity | Pressure | Rain* | Wind** | Luminosity | Snow |
|---|---|---|---|---|---|---|---|
| 1777861697 | 18.33° C | 25% | 1010.2 hPa | 0 mm | - | 7 W/m² | - |
| 1777861394 | 18.89° C | 24% | 1010.1 hPa | 0 mm | - | 11 W/m² | - |
| 1777861090 | 18.89° C | 23% | 1010.1 hPa | 0 mm | - | 14 W/m² | - |
| 1777860788 | 19.44° C | 22% | 1009.8 hPa | 0 mm | - | 19 W/m² | - |
| 1777860485 | 20° C | 21% | 1009.9 hPa | 0 mm | - | 23 W/m² | - |
| 1777860182 | 20° C | 19% | 1010.2 hPa | 0 mm | - | 26 W/m² | - |
| 1777859877 | 20.56° C | 19% | 1010.1 hPa | 0 mm | - | 29 W/m² | - |
| 1777859574 | 20.56° C | 19% | 1010.2 hPa | 0 mm | - | 29 W/m² | - |
| 1777859270 | 20.56° C | 19% | 1010.2 hPa | 0 mm | - | 32 W/m² | - |
| 1777858966 | 21.11° C | 19% | 1010.1 hPa | 0 mm | - | 38 W/m² | - |
| 1777858664 | 21.67° C | 18% | 1010.1 hPa | 0 mm | - | 46 W/m² | - |
| 1777858362 | 21.67° C | 17% | 1009.9 hPa | 0 mm | - | 56 W/m² | - |
| 1777858058 | 21.67° C | 16% | 1010.2 hPa | 0 mm | - | 76 W/m² | - |
| 1777857756 | 22.22° C | 16% | 1010.1 hPa | 0 mm | - | 77 W/m² | - |
| 1777857452 | 22.22° C | 18% | 1010.1 hPa | 0 mm | - | 83 W/m² | - |
| 1777857149 | 22.22° C | 19% | 1010.3 hPa | 0 mm | - | 103 W/m² | - |
| 1777856846 | 22.78° C | 19% | 1010.3 hPa | 0 mm | - | 115 W/m² | - |
| 1777856541 | 22.78° C | 18% | 1010.2 hPa | 0 mm | - | 116 W/m² | - |
| 1777856238 | 22.78° C | 16% | 1010.1 hPa | 0 mm | - | 136 W/m² | - |
| 1777855935 | 22.78° C | 17% | 1010.3 hPa | 0 mm | - | 140 W/m² | - |
| 1777855633 | 22.78° C | 18% | 1010.3 hPa | 0 mm | - | 150 W/m² | - |
| 1777855330 | 22.78° C | 19% | 1010.4 hPa | 0 mm | - | 63 W/m² | - |
| 1777855027 | 22.78° C | 19% | 1010.4 hPa | 0 mm | - | 192 W/m² | - |
| 1777854723 | 22.78° C | 18% | 1010.6 hPa | 0 mm | - | 204 W/m² | - |
| 1777854420 | 22.78° C | 19% | 1010.6 hPa | 0 mm | - | 209 W/m² | - |
* Rain latest hour (hover to see other rain measurements)
** Current wind speed in m/s (hover to see current wind gust speed)